Darstellungsparameter: Aktuell verwendete Einstellungen:
Skalierung der Graphiken ... ?
xyx+y,   Skalierungsfaktor:      Skalierung: Modus: x, Faktor: 1
Darstellungszeitraum ... ?
Vom - - bis: - -   Zeitraum: 11.09.2010 - 15.09.2010
Min/Max/Avg-Anzeige ... ?
Zeige MMA aktuell
Zeige MMA Monat
Zeige MMA alles
Zeige --A aktuell
Zeige --A Monat
Zeige --A alles
Keine MMA-Anzeige
MMA:
Average (ber die Originaldaten)
MMA-Basis: 23.02.2003 - 30.09.2020
Quicknavigation für Darstellung... ?
Tage:      1T, 2T, 3T, 5T -1T -2T -3T -5T +1T +2T +3T +5T
Wochen: 1W, 2W, 3W -1W -2W -3W +1W +2W +3W
Monate: 1M, 3M, 6M -1M -3M -6M +1M +3M +6M
Jahre:    1J, 3J, 5J, 10J -1J -3J -5J -10J +1J +3J +5J +10J
Nutze für die Darstellung ... ?
Originaldaten oder Mittelwerte auf ...
Stundenbasis Tagesbasis Wochenbasis
Monatsbasis Jahresbasis      Datenbasis: Original-Daten
Darstellen als:
Statistik (Auto) Statistik J:M      Darstellung:
Zur Graphik,    zurück zur Übersicht aller Sensoren.
 
Tabellarische Datenbersicht: ?
 
Sensor: Nr:Datum:Temp:Abs-Feuchte:Windchill:Wind:
Aussen-T/F 1 11-09-2010 00:09:03 15.2 C 10.9 g/m*3 15.2 C 0 km/h
2 11-09-2010 00:21:03 15.2 C 10.9 g/m*3 15.2 C 0 km/h
3 11-09-2010 00:33:03 15.1 C 10.84 g/m*3 15.1 C 0 km/h
4 11-09-2010 00:45:03 15.1 C 10.84 g/m*3 15.1 C 0 km/h
5 11-09-2010 00:57:03 15.1 C 10.84 g/m*3 15.1 C 0 km/h
6 11-09-2010 01:09:03 15.1 C 10.84 g/m*3 15.1 C 0 km/h
7 11-09-2010 01:21:03 15 C 10.77 g/m*3 15 C 0 km/h
8 11-09-2010 01:33:03 15 C 10.77 g/m*3 15 C 0 km/h
9 11-09-2010 01:45:04 15 C 10.77 g/m*3 15 C 0 km/h
10 11-09-2010 01:57:04 14.9 C 10.83 g/m*3 14.9 C 0 km/h
11 11-09-2010 02:09:04 14.9 C 10.83 g/m*3 14.9 C 0 km/h
12 11-09-2010 02:21:04 14.8 C 10.77 g/m*3 14.8 C 0 km/h
13 11-09-2010 02:33:04 14.7 C 10.58 g/m*3 14.7 C 0 km/h
14 11-09-2010 02:45:04 14.7 C 10.7 g/m*3 14.7 C 0 km/h
15 11-09-2010 02:57:04 14.6 C 10.76 g/m*3 14.6 C 0 km/h
16 11-09-2010 03:09:04 14.4 C 10.63 g/m*3 14.4 C 0 km/h
17 11-09-2010 03:21:04 14.3 C 10.57 g/m*3 14.3 C 0 km/h
18 11-09-2010 03:33:04 14.1 C 10.44 g/m*3 14.1 C 0 km/h
19 11-09-2010 03:45:04 14 C 10.37 g/m*3 14 C 0 km/h
20 11-09-2010 03:57:04 13.6 C 10.12 g/m*3 13.6 C 0 km/h
21 11-09-2010 04:09:04 13.5 C 10.06 g/m*3 13.5 C 0 km/h
22 11-09-2010 04:21:04 13.3 C 9.94 g/m*3 13.3 C 0 km/h
23 11-09-2010 04:33:04 13.1 C 9.81 g/m*3 13.1 C 0 km/h
24 11-09-2010 04:45:04 13 C 9.75 g/m*3 13 C 0 km/h
25 11-09-2010 04:57:04 12.8 C 9.74 g/m*3 12.8 C 0 km/h
Sensor: Nr:Datum:Temp:Abs-Feuchte:Windchill:Wind:
Aussen-T/F 26 11-09-2010 05:09:04 12.6 C 9.62 g/m*3 12.6 C 0 km/h
27 11-09-2010 05:21:04 12.5 C 9.68 g/m*3 12.5 C 0 km/h
28 11-09-2010 05:33:04 12.6 C 9.74 g/m*3 12.6 C 0 km/h
29 11-09-2010 05:45:05 12.7 C 9.91 g/m*3 12.7 C 0 km/h
30 11-09-2010 05:57:05 12.8 C 9.97 g/m*3 12.8 C 0 km/h
31 11-09-2010 06:09:05 13 C 10.09 g/m*3 13 C 0 km/h
32 11-09-2010 06:21:05 13.1 C 10.16 g/m*3 13.1 C 0 km/h
33 11-09-2010 06:33:05 12.8 C 9.97 g/m*3 12.8 C 0 km/h
34 11-09-2010 06:45:05 12.5 C 9.78 g/m*3 12.5 C 0 km/h
35 11-09-2010 06:57:05 12.3 C 9.56 g/m*3 12.3 C 0 km/h
36 11-09-2010 07:09:05 12.1 C 9.44 g/m*3 12.1 C 0 km/h
37 11-09-2010 07:21:05 12.1 C 9.44 g/m*3 12.1 C 0 km/h
38 11-09-2010 07:33:05 12.1 C 9.54 g/m*3 12.1 C 0 km/h
39 11-09-2010 07:45:05 12.1 C 9.54 g/m*3 12.1 C 0 km/h
40 11-09-2010 07:57:05 12.4 C 9.72 g/m*3 12.4 C 0 km/h
41 11-09-2010 08:09:05 12.7 C 10.02 g/m*3 12.7 C 0 km/h
42 11-09-2010 08:21:03 13 C 10.21 g/m*3 13 C 0 km/h
43 11-09-2010 08:33:02 13 C 10.21 g/m*3 13 C 0 km/h
44 11-09-2010 08:45:02 13.1 C 10.27 g/m*3 13.1 C 0 km/h
45 11-09-2010 08:57:02 13.4 C 10.46 g/m*3 13.4 C 0 km/h
46 11-09-2010 09:09:02 13.4 C 10.35 g/m*3 13.4 C 0 km/h
47 11-09-2010 09:21:02 13.5 C 10.41 g/m*3 13.5 C 0 km/h
48 11-09-2010 09:33:02 13.7 C 10.54 g/m*3 13.7 C 0 km/h
49 11-09-2010 09:45:01 13.9 C 10.67 g/m*3 13.9 C 0 km/h
50 11-09-2010 09:57:01 14.3 C 10.81 g/m*3 14.3 C 0 km/h
Sensor: Nr:Datum:Temp:Abs-Feuchte:Windchill:Wind:
Aussen-T/F 51 11-09-2010 10:09:02 14.7 C 11.08 g/m*3 14.7 C 0 km/h
52 11-09-2010 10:21:01 15 C 11.03 g/m*3 15 C 0 km/h
53 11-09-2010 10:33:01 15.6 C 11.3 g/m*3 15.6 C 0 km/h
54 11-09-2010 10:45:01 16.2 C 11.45 g/m*3 16.2 C 0 km/h
55 11-09-2010 10:57:01 16.8 C 11.72 g/m*3 16.8 C 0 km/h
56 11-09-2010 11:09:01 17.1 C 11.5 g/m*3 17.1 C 0 km/h
57 11-09-2010 11:21:02 17.5 C 11.18 g/m*3 17.5 C 0 km/h
58 11-09-2010 11:33:01 18.2 C 11.35 g/m*3 18.2 C 0 km/h
59 11-09-2010 11:45:03 19.1 C 11.31 g/m*3 19.1 C 0 km/h
60 11-09-2010 11:57:03 19.3 C 11.44 g/m*3 19.3 C 0 km/h
61 11-09-2010 12:09:02 19.2 C 9.89 g/m*3 19.2 C 0 km/h
62 11-09-2010 12:21:02 19.6 C 9.96 g/m*3 19.6 C 0 km/h
63 11-09-2010 12:33:02 19.9 C 9.45 g/m*3 19.9 C 0 km/h
64 11-09-2010 12:45:02 20.2 C 9.27 g/m*3 20.2 C 0 km/h
65 11-09-2010 12:57:02 20.6 C 9.31 g/m*3 20.6 C 0 km/h
66 11-09-2010 13:09:02 20.9 C 9.11 g/m*3 20.9 C 0 km/h
67 11-09-2010 13:21:02 21.3 C 8.76 g/m*3 21.3 C 0 km/h
68 11-09-2010 13:33:01 21.7 C 8.97 g/m*3 21.7 C 0 km/h
69 11-09-2010 13:45:02 22.2 C 8.44 g/m*3 22.2 C 0 km/h
70 11-09-2010 13:57:03 22.7 C 8.69 g/m*3 22.7 C 0 km/h
71 11-09-2010 14:09:01 23.3 C 8.15 g/m*3 23.3 C 0 km/h
72 11-09-2010 14:21:01 23.9 C 8.44 g/m*3 23.9 C 0 km/h
73 11-09-2010 14:33:02 24.3 C 8.19 g/m*3 24.3 C 0 km/h
74 11-09-2010 14:45:02 24.5 C 7.83 g/m*3 24.5 C 0 km/h
75 11-09-2010 14:57:02 25 C 8.06 g/m*3 25 C 0 km/h
Sensor: Nr:Datum:Temp:Abs-Feuchte:Windchill:Wind:
Aussen-T/F 76 11-09-2010 15:09:02 25.6 C 8.09 g/m*3 25.6 C 0 km/h
77 11-09-2010 15:21:02 25.7 C 7.9 g/m*3 25.7 C 0 km/h
78 11-09-2010 15:33:02 25.6 C 8.57 g/m*3 25.6 C 0 km/h
79 11-09-2010 15:45:02 26.5 C 7.51 g/m*3 26.5 C 0 km/h
80 11-09-2010 15:57:02 26.8 C 7.13 g/m*3 26.8 C 0 km/h
81 11-09-2010 16:09:02 25.7 C 7.66 g/m*3 25.7 C 0 km/h
82 11-09-2010 16:21:02 25.3 C 9.13 g/m*3 25.3 C 0 km/h
83 11-09-2010 16:33:02 26.5 C 8.01 g/m*3 26.5 C 0 km/h
84 11-09-2010 16:45:02 26.4 C 7.72 g/m*3 26.4 C 0 km/h
85 11-09-2010 16:57:02 27.8 C 8.34 g/m*3 27.8 C 0 km/h
86 11-09-2010 17:09:02 28 C 7.61 g/m*3 28 C 0 km/h
87 11-09-2010 17:21:02 27.3 C 7.85 g/m*3 27.3 C 0 km/h
88 11-09-2010 17:33:02 27.5 C 8.47 g/m*3 27.5 C 0 km/h
89 11-09-2010 17:45:02 27.6 C 8.78 g/m*3 27.6 C 0 km/h
90 11-09-2010 17:57:02 27.7 C 8.83 g/m*3 27.7 C 0 km/h
91 11-09-2010 18:09:02 27.5 C 9.26 g/m*3 27.5 C 0 km/h
92 11-09-2010 18:21:02 26.8 C 9.16 g/m*3 26.8 C 0 km/h
93 11-09-2010 18:33:01 26.3 C 8.91 g/m*3 26.3 C 0 km/h
94 11-09-2010 18:45:02 25.3 C 9.36 g/m*3 25.3 C 0 km/h
95 11-09-2010 18:57:02 24.4 C 9.57 g/m*3 24.4 C 0 km/h
96 11-09-2010 19:09:01 23.7 C 9.63 g/m*3 23.7 C 0 km/h
97 11-09-2010 19:21:02 22.6 C 9.64 g/m*3 22.6 C 0 km/h
98 11-09-2010 19:33:02 21.6 C 10.05 g/m*3 21.6 C 0 km/h
99 11-09-2010 19:45:02 20.7 C 9.72 g/m*3 20.7 C 0 km/h
100 11-09-2010 19:57:02 20.2 C 9.44 g/m*3 20.2 C 0 km/h
Sensor: Nr:Datum:Temp:Abs-Feuchte:Windchill:Wind:
Aussen-T/F 101 11-09-2010 20:09:02 20 C 9.33 g/m*3 20 C 0 km/h
102 11-09-2010 20:21:02 19.5 C 9.4 g/m*3 19.5 C 0 km/h
103 11-09-2010 20:33:02 19.3 C 9.45 g/m*3 19.3 C 0 km/h
104 11-09-2010 20:45:01 19.1 C 9.67 g/m*3 19.1 C 0 km/h
105 11-09-2010 20:57:01 18.8 C 9.66 g/m*3 18.8 C 0 km/h
106 11-09-2010 21:09:02 18.6 C 9.71 g/m*3 18.6 C 0 km/h
107 11-09-2010 21:21:01 18.4 C 9.91 g/m*3 18.4 C 0 km/h
108 11-09-2010 21:33:01 18.2 C 10.1 g/m*3 18.2 C 0 km/h
109 11-09-2010 21:45:01 17.7 C 10.11 g/m*3 17.7 C 0 km/h
110 11-09-2010 21:57:01 17.6 C 10.2 g/m*3 17.6 C 0 km/h
111 11-09-2010 22:09:02 17.6 C 10.2 g/m*3 17.6 C 0 km/h
112 11-09-2010 22:21:01 17.4 C 10.23 g/m*3 17.4 C 0 km/h
113 11-09-2010 22:34:03 17.2 C 10.1 g/m*3 17.2 C 0 km/h
114 11-09-2010 22:46:03 16.9 C 10.36 g/m*3 16.9 C 0 km/h
115 11-09-2010 22:58:03 16.9 C 10.5 g/m*3 16.9 C 0 km/h
116 11-09-2010 23:10:03 17 C 10.42 g/m*3 17 C 0 km/h
117 11-09-2010 23:22:03 16.6 C 10.45 g/m*3 16.6 C 0 km/h
118 11-09-2010 23:34:03 16.5 C 10.39 g/m*3 16.5 C 0 km/h
119 11-09-2010 23:46:03 16.4 C 10.33 g/m*3 16.4 C 0 km/h
120 11-09-2010 23:58:03 16.3 C 10.41 g/m*3 16.3 C 0 km/h
121 12-09-2010 00:10:03 16.2 C 10.48 g/m*3 16.2 C 0 km/h
122 12-09-2010 00:22:03 16.2 C 10.48 g/m*3 16.2 C 0 km/h
123 12-09-2010 00:34:03 16.1 C 10.42 g/m*3 16.1 C 0 km/h
124 12-09-2010 00:46:03 16 C 10.35 g/m*3 16 C 0 km/h
125 12-09-2010 00:58:03 15.8 C 10.36 g/m*3 15.8 C 0 km/h
Sensor: Nr:Datum:Temp:Abs-Feuchte:Windchill:Wind:
Aussen-T/F 126 12-09-2010 01:10:03 15.6 C 10.37 g/m*3 15.6 C 0 km/h
127 12-09-2010 01:22:04 15.5 C 10.31 g/m*3 15.5 C 0 km/h
128 12-09-2010 01:34:04 15.2 C 10.25 g/m*3 15.2 C 0 km/h
129 12-09-2010 01:46:04 15.2 C 10.38 g/m*3 15.2 C 0 km/h
130 12-09-2010 01:58:04 15.2 C 10.38 g/m*3 15.2 C 0 km/h
131 12-09-2010 02:10:04 15 C 10.26 g/m*3 15 C 0 km/h
132 12-09-2010 02:22:04 15 C 10.39 g/m*3 15 C 0 km/h
133 12-09-2010 02:34:04 14.9 C 10.45 g/m*3 14.9 C 0 km/h
134 12-09-2010 02:46:04 14.8 C 10.51 g/m*3 14.8 C 0 km/h
135 12-09-2010 02:58:04 14.7 C 10.32 g/m*3 14.7 C 0 km/h
136 12-09-2010 03:10:04 14.7 C 10.32 g/m*3 14.7 C 0 km/h
137 12-09-2010 03:22:04 14.6 C 10.26 g/m*3 14.6 C 0 km/h
138 12-09-2010 03:34:04 14.4 C 10.14 g/m*3 14.4 C 0 km/h
139 12-09-2010 03:46:04 14.3 C 10.07 g/m*3 14.3 C 0 km/h
140 12-09-2010 03:58:04 14.3 C 10.2 g/m*3 14.3 C 0 km/h
141 12-09-2010 04:10:04 14.2 C 10.14 g/m*3 14.2 C 0 km/h
142 12-09-2010 04:22:04 14.1 C 10.07 g/m*3 14.1 C 0 km/h
143 12-09-2010 04:34:05 14.1 C 10.07 g/m*3 14.1 C 0 km/h
144 12-09-2010 04:46:05 14.1 C 10.07 g/m*3 14.1 C 0 km/h
145 12-09-2010 04:58:05 14 C 10.01 g/m*3 14 C 0 km/h
146 12-09-2010 05:10:05 13.9 C 10.07 g/m*3 13.9 C 0 km/h
147 12-09-2010 05:22:05 13.7 C 9.95 g/m*3 13.7 C 0 km/h
148 12-09-2010 05:34:05 13.8 C 10.01 g/m*3 13.8 C 0 km/h
149 12-09-2010 05:46:05 13.7 C 9.95 g/m*3 13.7 C 0 km/h
150 12-09-2010 05:58:05 13.7 C 9.95 g/m*3 13.7 C 0 km/h
Sensor: Nr:Datum:Temp:Abs-Feuchte:Windchill:Wind:
Aussen-T/F 151 12-09-2010 06:10:05 13.7 C 9.95 g/m*3 13.7 C 0 km/h
152 12-09-2010 06:22:05 13.5 C 9.94 g/m*3 13.5 C 0 km/h
153 12-09-2010 06:34:05 13.5 C 9.94 g/m*3 13.5 C 0 km/h
154 12-09-2010 06:46:05 13.5 C 9.94 g/m*3 13.5 C 0 km/h
155 12-09-2010 06:58:05 13.4 C 9.88 g/m*3 13.4 C 0 km/h
156 12-09-2010 07:10:05 13.5 C 9.94 g/m*3 13.5 C 0 km/h
157 12-09-2010 07:22:05 13.5 C 10.06 g/m*3 13.5 C 0 km/h
158 12-09-2010 07:34:05 13.6 C 10.12 g/m*3 13.6 C 0 km/h
159 12-09-2010 07:46:02 13.8 C 10.25 g/m*3 13.8 C 0 km/h
160 12-09-2010 07:58:02 14.1 C 10.32 g/m*3 14.1 C 0 km/h
161 12-09-2010 08:10:02 14.1 C 10.32 g/m*3 14.1 C 0 km/h
162 12-09-2010 08:22:01 14.4 C 10.38 g/m*3 14.4 C 0 km/h
163 12-09-2010 08:34:02 14.5 C 10.32 g/m*3 14.5 C 0 km/h
164 12-09-2010 08:46:02 14 C 10.13 g/m*3 14 C 0 km/h
165 12-09-2010 08:58:02 14.3 C 10.32 g/m*3 14.3 C 0 km/h
166 12-09-2010 09:10:02 14.8 C 10.64 g/m*3 14.8 C 0 km/h
167 12-09-2010 09:22:02 14.8 C 10.39 g/m*3 14.8 C 0 km/h
168 12-09-2010 09:34:02 14.8 C 10.51 g/m*3 14.8 C 0 km/h
169 12-09-2010 09:46:02 15 C 10.51 g/m*3 15 C 0 km/h
170 12-09-2010 09:58:02 14.8 C 10.51 g/m*3 14.8 C 0 km/h
171 12-09-2010 10:10:02 15.3 C 10.84 g/m*3 15.3 C 0 km/h
172 12-09-2010 10:22:03 15.9 C 11.1 g/m*3 15.9 C 0 km/h
173 12-09-2010 10:34:02 16.8 C 11.29 g/m*3 16.8 C 0 km/h
174 12-09-2010 10:46:02 18 C 11.37 g/m*3 18 C 0 km/h
175 12-09-2010 10:58:02 18.7 C 11.05 g/m*3 18.7 C 0 km/h
Sensor: Nr:Datum:Temp:Abs-Feuchte:Windchill:Wind:
Aussen-T/F 176 12-09-2010 11:10:02 19.5 C 10.41 g/m*3 19.5 C 0 km/h
177 12-09-2010 11:22:02 20.2 C 10.67 g/m*3 20.2 C 0 km/h
178 12-09-2010 11:34:02 20.1 C 10.6 g/m*3 20.1 C 0 km/h
179 12-09-2010 11:46:02 20 C 10.89 g/m*3 20 C 0 km/h
180 12-09-2010 11:58:02 20.3 C 10.9 g/m*3 20.3 C 0 km/h
181 12-09-2010 12:10:01 20.5 C 10.85 g/m*3 20.5 C 0 km/h
182 12-09-2010 12:22:02 20.9 C 11.11 g/m*3 20.9 C 0 km/h
183 12-09-2010 12:34:01 21.4 C 11.06 g/m*3 21.4 C 0 km/h
184 12-09-2010 12:46:01 22.4 C 10.33 g/m*3 22.4 C 0 km/h
185 12-09-2010 12:58:02 22.9 C 10.22 g/m*3 22.9 C 0 km/h
186 12-09-2010 13:10:01 23.1 C 10.34 g/m*3 23.1 C 0 km/h
187 12-09-2010 13:22:01 23.7 C 10.48 g/m*3 23.7 C 0 km/h
188 12-09-2010 13:34:02 24.3 C 9.74 g/m*3 24.3 C 0 km/h
189 12-09-2010 13:46:02 25 C 8.98 g/m*3 25 C 0 km/h
190 12-09-2010 13:58:02 25.9 C 9.44 g/m*3 25.9 C 0 km/h
191 12-09-2010 14:10:02 25.7 C 9.34 g/m*3 25.7 C 0 km/h
192 12-09-2010 14:22:01 25 C 8.06 g/m*3 25 C 0 km/h
193 12-09-2010 14:34:02 24.7 C 8.15 g/m*3 24.7 C 0 km/h
194 12-09-2010 14:46:02 23.1 C 9.72 g/m*3 23.1 C 0 km/h
195 12-09-2010 14:58:02 20.8 C 10.14 g/m*3 20.8 C 0 km/h
196 12-09-2010 15:10:02 19.5 C 9.23 g/m*3 19.5 C 0 km/h
197 12-09-2010 15:22:02 19.1 C 8.69 g/m*3 19.1 C 0 km/h
198 12-09-2010 15:34:02 19.4 C 8.84 g/m*3 19.4 C 0 km/h
199 12-09-2010 15:46:02 19.4 C 8.84 g/m*3 19.4 C 0 km/h
200 12-09-2010 15:58:02 19.2 C 8.74 g/m*3 19.2 C 0 km/h
Sensor: Nr:Datum:Temp:Abs-Feuchte:Windchill:Wind:
Aussen-T/F 201 12-09-2010 16:10:02 17.9 C 8.86 g/m*3 17.9 C 0 km/h
202 12-09-2010 16:22:02 18.1 C 9.12 g/m*3 18.1 C 0 km/h
203 12-09-2010 16:34:02 18.1 C 9.27 g/m*3 18.1 C 0 km/h
204 12-09-2010 16:46:02 17.6 C 9.3 g/m*3 17.6 C 0 km/h
205 12-09-2010 16:58:02 17.2 C 9.37 g/m*3 17.2 C 0 km/h
206 12-09-2010 17:10:02 17.2 C 9.52 g/m*3 17.2 C 0 km/h
207 12-09-2010 17:22:02 16.6 C 9.04 g/m*3 16.6 C 0 km/h
208 12-09-2010 17:34:01 16.1 C 9.46 g/m*3 16.1 C 0 km/h
209 12-09-2010 17:46:02 15.6 C 9.97 g/m*3 15.6 C 0 km/h
210 12-09-2010 17:58:02 15.5 C 10.31 g/m*3 15.5 C 0 km/h
211 12-09-2010 18:10:01 15.2 C 10.25 g/m*3 15.2 C 0 km/h
212 12-09-2010 18:22:02 15.2 C 10.51 g/m*3 15.2 C 0 km/h
213 12-09-2010 18:34:02 14.9 C 10.58 g/m*3 14.9 C 0 km/h
214 12-09-2010 18:46:02 14.7 C 10.7 g/m*3 14.7 C 0 km/h
215 12-09-2010 18:58:02 14.6 C 10.89 g/m*3 14.6 C 0 km/h
216 12-09-2010 19:10:02 14.5 C 10.82 g/m*3 14.5 C 0 km/h
217 12-09-2010 19:22:02 14.3 C 10.69 g/m*3 14.3 C 0 km/h
218 12-09-2010 19:34:02 14.1 C 10.68 g/m*3 14.1 C 0 km/h
219 12-09-2010 19:46:01 14.3 C 10.93 g/m*3 14.3 C 0 km/h
220 12-09-2010 19:58:01 14.1 C 10.8 g/m*3 14.1 C 0 km/h
221 12-09-2010 20:10:02 14 C 10.74 g/m*3 14 C 0 km/h
222 12-09-2010 20:22:01 13.9 C 10.79 g/m*3 13.9 C 0 km/h
223 12-09-2010 20:34:01 13.8 C 10.84 g/m*3 13.8 C 0 km/h
224 12-09-2010 20:46:01 13.7 C 10.78 g/m*3 13.7 C 0 km/h
225 12-09-2010 20:58:01 13.7 C 10.89 g/m*3 13.7 C 0 km/h
Sensor: Nr:Datum:Temp:Abs-Feuchte:Windchill:Wind:
Aussen-T/F 226 12-09-2010 21:10:02 13.6 C 10.83 g/m*3 13.6 C 0 km/h
227 12-09-2010 21:22:01 13.7 C 10.89 g/m*3 13.7 C 0 km/h
228 12-09-2010 21:34:01 13.7 C 10.89 g/m*3 13.7 C 0 km/h
229 12-09-2010 21:46:01 13.9 C 11.15 g/m*3 13.9 C 0 km/h
230 12-09-2010 21:58:01 14 C 11.1 g/m*3 14 C 0 km/h
231 12-09-2010 22:10:02 13.9 C 11.15 g/m*3 13.9 C 0 km/h
232 12-09-2010 22:22:01 13.9 C 11.15 g/m*3 13.9 C 0 km/h
233 12-09-2010 22:34:02 13.8 C 11.08 g/m*3 13.8 C 0 km/h
234 12-09-2010 22:46:02 13.7 C 11.01 g/m*3 13.7 C 0 km/h
235 12-09-2010 22:58:02 13.6 C 10.95 g/m*3 13.6 C 0 km/h
236 12-09-2010 23:10:01 13.5 C 10.88 g/m*3 13.5 C 0 km/h
237 12-09-2010 23:22:02 13.5 C 10.88 g/m*3 13.5 C 0 km/h
238 12-09-2010 23:34:02 13.5 C 10.88 g/m*3 13.5 C 0 km/h
239 12-09-2010 23:46:02 13.7 C 11.01 g/m*3 13.7 C 0 km/h
240 12-09-2010 23:58:02 13.7 C 11.01 g/m*3 13.7 C 0 km/h
241 13-09-2010 00:10:03 13.7 C 11.01 g/m*3 13.7 C 0 km/h
242 13-09-2010 00:22:02 13.6 C 10.95 g/m*3 13.6 C 0 km/h
243 13-09-2010 00:34:02 13.7 C 11.01 g/m*3 13.7 C 0 km/h
244 13-09-2010 00:46:02 13.7 C 11.01 g/m*3 13.7 C 0 km/h
245 13-09-2010 00:58:02 13.7 C 11.01 g/m*3 13.7 C 0 km/h
246 13-09-2010 01:10:02 13.6 C 10.95 g/m*3 13.6 C 0 km/h
247 13-09-2010 01:22:03 13.7 C 11.01 g/m*3 13.7 C 0 km/h
248 13-09-2010 01:34:02 13.8 C 11.08 g/m*3 13.8 C 0 km/h
249 13-09-2010 01:46:02 13.7 C 11.01 g/m*3 13.7 C 0 km/h
250 13-09-2010 01:58:02 13.7 C 11.01 g/m*3 13.7 C 0 km/h
Sensor: Nr:Datum:Temp:Abs-Feuchte:Windchill:Wind:
Aussen-T/F 251 13-09-2010 02:10:02 13.7 C 11.01 g/m*3 13.7 C 0 km/h
252 13-09-2010 02:22:02 13.5 C 10.88 g/m*3 13.5 C 0 km/h
253 13-09-2010 02:34:02 13.4 C 10.81 g/m*3 13.4 C 0 km/h
254 13-09-2010 02:46:02 13.4 C 10.81 g/m*3 13.4 C 0 km/h
255 13-09-2010 02:58:02 13.6 C 10.95 g/m*3 13.6 C 0 km/h
256 13-09-2010 03:10:01 13.5 C 10.88 g/m*3 13.5 C 0 km/h
257 13-09-2010 03:22:01 13.3 C 10.63 g/m*3 13.3 C 0 km/h
258 13-09-2010 03:34:02 13.2 C 10.56 g/m*3 13.2 C 0 km/h
259 13-09-2010 03:46:02 13.2 C 10.45 g/m*3 13.2 C 0 km/h
260 13-09-2010 03:58:02 13.1 C 10.38 g/m*3 13.1 C 0 km/h
261 13-09-2010 04:10:01 13 C 10.21 g/m*3 13 C 0 km/h
262 13-09-2010 04:22:02 12.8 C 10.19 g/m*3 12.8 C 0 km/h
263 13-09-2010 04:34:01 12.9 C 10.26 g/m*3 12.9 C 0 km/h
264 13-09-2010 04:46:01 13.1 C 10.16 g/m*3 13.1 C 0 km/h
265 13-09-2010 04:58:02 13.2 C 10.22 g/m*3 13.2 C 0 km/h
266 13-09-2010 05:10:01 13.3 C 10.05 g/m*3 13.3 C 0 km/h
267 13-09-2010 05:22:01 13.3 C 9.82 g/m*3 13.3 C 0 km/h
268 13-09-2010 05:34:02 13.2 C 9.64 g/m*3 13.2 C 0 km/h
269 13-09-2010 05:46:01 13.2 C 9.64 g/m*3 13.2 C 0 km/h
270 13-09-2010 05:58:01 13.3 C 9.7 g/m*3 13.3 C 0 km/h
271 13-09-2010 06:10:02 13.4 C 9.76 g/m*3 13.4 C 0 km/h
272 13-09-2010 06:22:01 13.4 C 9.65 g/m*3 13.4 C 0 km/h
273 13-09-2010 06:34:01 13.3 C 9.59 g/m*3 13.3 C 0 km/h
274 13-09-2010 06:46:01 13.2 C 9.42 g/m*3 13.2 C 0 km/h
275 13-09-2010 06:58:01 13.2 C 9.42 g/m*3 13.2 C 0 km/h
Sensor: Nr:Datum:Temp:Abs-Feuchte:Windchill:Wind:
Aussen-T/F 276 13-09-2010 07:10:02 13 C 9.19 g/m*3 13 C 0 km/h
277 13-09-2010 07:22:01 13 C 9.3 g/m*3 13 C 0 km/h
278 13-09-2010 07:34:01 12.7 C 9.13 g/m*3 12.7 C 0 km/h
279 13-09-2010 07:46:01 12.5 C 9.13 g/m*3 12.5 C 0 km/h
280 13-09-2010 07:58:01 12.4 C 9.18 g/m*3 12.4 C 0 km/h
281 13-09-2010 08:10:01 12.5 C 9.35 g/m*3 12.5 C 0 km/h
282 13-09-2010 08:22:01 13 C 9.64 g/m*3 13 C 0 km/h
283 13-09-2010 08:34:01 13.1 C 9.7 g/m*3 13.1 C 0 km/h
284 13-09-2010 08:46:02 13.2 C 9.64 g/m*3 13.2 C 0 km/h
285 13-09-2010 08:58:02 13.4 C 9.76 g/m*3 13.4 C 0 km/h
286 13-09-2010 09:10:01 13.5 C 9.71 g/m*3 13.5 C 0 km/h
287 13-09-2010 09:22:02 13.7 C 9.71 g/m*3 13.7 C 0 km/h
288 13-09-2010 09:34:01 14 C 9.41 g/m*3 14 C 0 km/h
289 13-09-2010 09:46:02 14.2 C 9.28 g/m*3 14.2 C 0 km/h
290 13-09-2010 09:58:02 14.5 C 9.2 g/m*3 14.5 C 0 km/h
291 13-09-2010 10:10:01 14.8 C 9.25 g/m*3 14.8 C 0 km/h
292 13-09-2010 10:22:01 15 C 9.1 g/m*3 15 C 0 km/h
293 13-09-2010 10:34:02 15.3 C 9.14 g/m*3 15.3 C 0 km/h
294 13-09-2010 10:46:01 15.6 C 8.91 g/m*3 15.6 C 0 km/h
295 13-09-2010 10:58:01 15.9 C 8.8 g/m*3 15.9 C 0 km/h
296 13-09-2010 11:10:01 16 C 8.58 g/m*3 16 C 0 km/h
297 13-09-2010 11:22:01 16.4 C 8.65 g/m*3 16.4 C 0 km/h
298 13-09-2010 11:34:02 16.3 C 8.74 g/m*3 16.3 C 0 km/h
299 13-09-2010 11:46:01 17.1 C 8.59 g/m*3 17.1 C 0 km/h
300 13-09-2010 11:58:01 16.7 C 8.24 g/m*3 16.7 C 0 km/h
Sensor: Nr:Datum:Temp:Abs-Feuchte:Windchill:Wind:
Aussen-T/F 301 13-09-2010 12:10:02 16.4 C 8.23 g/m*3 16.4 C 0 km/h
302 13-09-2010 12:22:01 16.9 C 8.2 g/m*3 16.9 C 0 km/h
303 13-09-2010 12:34:01 17.6 C 7.8 g/m*3 17.6 C 0 km/h
304 13-09-2010 12:46:01 17.6 C 7.5 g/m*3 17.6 C 0 km/h
305 13-09-2010 12:58:01 17.7 C 7.85 g/m*3 17.7 C 0 km/h
306 13-09-2010 13:10:01 18 C 7.37 g/m*3 18 C 0 km/h
307 13-09-2010 13:22:01 18.9 C 7.78 g/m*3 18.9 C 0 km/h
308 13-09-2010 13:34:01 18.9 C 7.45 g/m*3 18.9 C 0 km/h
309 13-09-2010 13:46:01 18.7 C 7.2 g/m*3 18.7 C 0 km/h
310 13-09-2010 13:58:01 20.2 C 7.87 g/m*3 20.2 C 0 km/h
311 13-09-2010 14:10:01 19.9 C 7.22 g/m*3 19.9 C 0 km/h
312 13-09-2010 14:22:02 19.5 C 6.55 g/m*3 19.5 C 0 km/h
313 13-09-2010 14:34:01 19.6 C 6.75 g/m*3 19.6 C 0 km/h
314 13-09-2010 14:46:02 20.6 C 7.34 g/m*3 20.6 C 0 km/h
315 13-09-2010 14:58:02 21.3 C 6.9 g/m*3 21.3 C 0 km/h
316 13-09-2010 15:10:01 20.9 C 6.74 g/m*3 20.9 C 0 km/h
317 13-09-2010 15:22:01 21.3 C 6.9 g/m*3 21.3 C 0 km/h
318 13-09-2010 15:34:01 21.2 C 6.67 g/m*3 21.2 C 0 km/h
319 13-09-2010 15:46:01 20.6 C 7.16 g/m*3 20.6 C 0 km/h
320 13-09-2010 15:58:01 20 C 7.95 g/m*3 20 C 0 km/h
321 13-09-2010 16:10:01 20.8 C 7.97 g/m*3 20.8 C 0 km/h
322 13-09-2010 16:22:02 21.4 C 6.37 g/m*3 21.4 C 0 km/h
323 13-09-2010 16:34:01 21.4 C 7.5 g/m*3 21.4 C 0 km/h
324 13-09-2010 16:46:02 21.8 C 6.52 g/m*3 21.8 C 0 km/h
325 13-09-2010 16:58:02 22.4 C 6.16 g/m*3 22.4 C 0 km/h
Sensor: Nr:Datum:Temp:Abs-Feuchte:Windchill:Wind:
Aussen-T/F 326 13-09-2010 17:10:01 22.3 C 7.11 g/m*3 22.3 C 0 km/h
327 13-09-2010 17:22:01 20.5 C 7.65 g/m*3 20.5 C 0 km/h
328 13-09-2010 17:34:01 20.2 C 7.87 g/m*3 20.2 C 0 km/h
329 13-09-2010 17:46:01 19.8 C 8.37 g/m*3 19.8 C 0 km/h
330 13-09-2010 17:58:02 19.6 C 8.61 g/m*3 19.6 C 0 km/h
331 13-09-2010 18:10:02 18.9 C 8.75 g/m*3 18.9 C 0 km/h
332 13-09-2010 18:22:02 18.4 C 8.65 g/m*3 18.4 C 0 km/h
333 13-09-2010 18:34:01 18.2 C 8.55 g/m*3 18.2 C 0 km/h
334 13-09-2010 18:46:02 17.9 C 8.55 g/m*3 17.9 C 0 km/h
335 13-09-2010 18:58:02 17.7 C 8.6 g/m*3 17.7 C 0 km/h
336 13-09-2010 19:10:01 17.7 C 8.6 g/m*3 17.7 C 0 km/h
337 13-09-2010 19:22:02 17.5 C 8.5 g/m*3 17.5 C 0 km/h
338 13-09-2010 19:34:01 17 C 8.68 g/m*3 17 C 0 km/h
339 13-09-2010 19:46:02 16.4 C 8.51 g/m*3 16.4 C 0 km/h
340 13-09-2010 19:58:02 16 C 8.45 g/m*3 16 C 0 km/h
341 13-09-2010 20:10:01 15.6 C 8.64 g/m*3 15.6 C 0 km/h
342 13-09-2010 20:22:01 15.4 C 8.8 g/m*3 15.4 C 0 km/h
343 13-09-2010 20:34:01 15.2 C 8.96 g/m*3 15.2 C 0 km/h
344 13-09-2010 20:46:01 15.1 C 9.03 g/m*3 15.1 C 0 km/h
345 13-09-2010 20:58:02 14.9 C 9.05 g/m*3 14.9 C 0 km/h
346 13-09-2010 21:10:01 14.7 C 8.94 g/m*3 14.7 C 0 km/h
347 13-09-2010 21:22:01 14.6 C 9.01 g/m*3 14.6 C 0 km/h
348 13-09-2010 21:34:02 14.5 C 8.95 g/m*3 14.5 C 0 km/h
349 13-09-2010 21:46:01 14.4 C 8.9 g/m*3 14.4 C 0 km/h
350 13-09-2010 21:58:01 14.4 C 9.02 g/m*3 14.4 C 0 km/h
Sensor: Nr:Datum:Temp:Abs-Feuchte:Windchill:Wind:
Aussen-T/F 351 13-09-2010 22:10:01 14.1 C 8.86 g/m*3 14.1 C 0 km/h
352 13-09-2010 22:23:05 13.8 C 8.82 g/m*3 13.8 C 0 km/h
353 13-09-2010 22:35:05 13.7 C 8.88 g/m*3 13.7 C 0 km/h
354 13-09-2010 22:47:05 13.5 C 8.89 g/m*3 13.5 C 0 km/h
355 13-09-2010 22:59:05 13.4 C 8.83 g/m*3 13.4 C 0 km/h
356 13-09-2010 23:11:05 13.3 C 8.78 g/m*3 13.3 C 0 km/h
357 13-09-2010 23:23:05 13.3 C 9.01 g/m*3 13.3 C 0 km/h
358 13-09-2010 23:35:05 13.1 C 8.9 g/m*3 13.1 C 0 km/h
359 13-09-2010 23:47:05 13 C 8.73 g/m*3 13 C 0 km/h
360 13-09-2010 23:59:05 13 C 8.85 g/m*3 13 C 0 km/h
361 14-09-2010 00:11:05 13 C 8.96 g/m*3 13 C 0 km/h
362 14-09-2010 00:23:05 12.8 C 9.18 g/m*3 12.8 C 0 km/h
363 14-09-2010 00:35:05 12.8 C 9.3 g/m*3 12.8 C 0 km/h
364 14-09-2010 00:47:05 12.8 C 9.3 g/m*3 12.8 C 0 km/h
365 14-09-2010 00:59:05 12.7 C 9.24 g/m*3 12.7 C 0 km/h
366 14-09-2010 01:11:05 12.6 C 9.18 g/m*3 12.6 C 0 km/h
367 14-09-2010 01:23:05 12.7 C 9.24 g/m*3 12.7 C 0 km/h
368 14-09-2010 01:35:05 12.8 C 9.3 g/m*3 12.8 C 0 km/h
369 14-09-2010 01:47:05 12.9 C 9.35 g/m*3 12.9 C 0 km/h
370 14-09-2010 01:59:05 13 C 9.3 g/m*3 13 C 0 km/h
371 14-09-2010 02:11:05 13 C 9.3 g/m*3 13 C 0 km/h
372 14-09-2010 02:23:05 13 C 9.3 g/m*3 13 C 0 km/h
373 14-09-2010 02:35:06 13.1 C 9.36 g/m*3 13.1 C 0 km/h
374 14-09-2010 02:47:06 13.2 C 9.42 g/m*3 13.2 C 0 km/h
375 14-09-2010 02:59:06 13.2 C 9.3 g/m*3 13.2 C 0 km/h
Sensor: Nr:Datum:Temp:Abs-Feuchte:Windchill:Wind:
Aussen-T/F 376 14-09-2010 03:11:06 13.4 C 9.18 g/m*3 13.4 C 0 km/h
377 14-09-2010 03:23:06 13.4 C 9.18 g/m*3 13.4 C 0 km/h
378 14-09-2010 03:35:06 13.3 C 9.24 g/m*3 13.3 C 0 km/h
379 14-09-2010 03:47:06 13.3 C 9.24 g/m*3 13.3 C 0 km/h
380 14-09-2010 03:59:06 13.4 C 9.3 g/m*3 13.4 C 0 km/h
381 14-09-2010 04:11:06 13.2 C 9.19 g/m*3 13.2 C 0 km/h
382 14-09-2010 04:23:06 13 C 9.3 g/m*3 13 C 0 km/h
383 14-09-2010 04:35:06 12.8 C 9.41 g/m*3 12.8 C 0 km/h
384 14-09-2010 04:47:06 12.9 C 9.58 g/m*3 12.9 C 0 km/h
385 14-09-2010 04:59:06 12.8 C 9.63 g/m*3 12.8 C 0 km/h
386 14-09-2010 05:11:06 12.9 C 9.81 g/m*3 12.9 C 0 km/h
387 14-09-2010 05:23:06 12.9 C 9.81 g/m*3 12.9 C 0 km/h
388 14-09-2010 05:35:06 13 C 9.87 g/m*3 13 C 0 km/h
389 14-09-2010 05:47:06 13 C 9.87 g/m*3 13 C 0 km/h
390 14-09-2010 05:59:06 13 C 9.87 g/m*3 13 C 0 km/h
391 14-09-2010 06:11:06 13.3 C 10.05 g/m*3 13.3 C 0 km/h
392 14-09-2010 06:23:06 13.5 C 9.83 g/m*3 13.5 C 0 km/h
393 14-09-2010 06:35:06 13.8 C 9.06 g/m*3 13.8 C 0 km/h
394 14-09-2010 06:47:06 14.5 C 8.83 g/m*3 14.5 C 0 km/h
395 14-09-2010 06:59:07 14.4 C 8.53 g/m*3 14.4 C 0 km/h
396 14-09-2010 07:11:07 14.4 C 8.53 g/m*3 14.4 C 0 km/h
397 14-09-2010 07:23:07 14.4 C 8.65 g/m*3 14.4 C 0 km/h
398 14-09-2010 07:35:04 14.3 C 8.85 g/m*3 14.3 C 0 km/h
399 14-09-2010 07:47:02 13.6 C 9.18 g/m*3 13.6 C 0 km/h
400 14-09-2010 07:59:02 13.6 C 9.42 g/m*3 13.6 C 0 km/h
Sensor: Nr:Datum:Temp:Abs-Feuchte:Windchill:Wind:
Aussen-T/F 401 14-09-2010 08:11:01 13.7 C 9.47 g/m*3 13.7 C 0 km/h
402 14-09-2010 08:23:02 13.7 C 9.47 g/m*3 13.7 C 0 km/h
403 14-09-2010 08:35:02 14.1 C 9.34 g/m*3 14.1 C 0 km/h
404 14-09-2010 08:47:02 14.4 C 9.15 g/m*3 14.4 C 0 km/h
405 14-09-2010 08:59:02 14.6 C 9.13 g/m*3 14.6 C 0 km/h
406 14-09-2010 09:11:01 14.7 C 9.07 g/m*3 14.7 C 0 km/h
407 14-09-2010 09:23:02 14.8 C 9.12 g/m*3 14.8 C 0 km/h
408 14-09-2010 09:35:02 15.1 C 9.03 g/m*3 15.1 C 0 km/h
409 14-09-2010 09:47:01 15.6 C 9.04 g/m*3 15.6 C 0 km/h
410 14-09-2010 09:59:01 15.6 C 9.04 g/m*3 15.6 C 0 km/h
411 14-09-2010 10:11:02 15.6 C 9.04 g/m*3 15.6 C 0 km/h
412 14-09-2010 10:23:01 15.7 C 9.1 g/m*3 15.7 C 0 km/h
413 14-09-2010 10:35:01 16 C 8.99 g/m*3 16 C 0 km/h
414 14-09-2010 10:47:01 16.4 C 8.93 g/m*3 16.4 C 0 km/h
415 14-09-2010 10:59:01 16.8 C 9.29 g/m*3 16.8 C 0 km/h
416 14-09-2010 11:11:02 17 C 8.97 g/m*3 17 C 0 km/h
417 14-09-2010 11:23:01 17.1 C 9.03 g/m*3 17.1 C 0 km/h
418 14-09-2010 11:35:01 17 C 9.12 g/m*3 17 C 0 km/h
419 14-09-2010 11:47:01 16.7 C 9.24 g/m*3 16.7 C 0 km/h
420 14-09-2010 11:59:01 17.5 C 9.39 g/m*3 17.5 C 0 km/h
421 14-09-2010 12:11:02 17.8 C 9.26 g/m*3 17.8 C 0 km/h
422 14-09-2010 12:23:02 18.2 C 9.01 g/m*3 18.2 C 0 km/h
423 14-09-2010 12:35:01 18.5 C 9.18 g/m*3 18.5 C 0 km/h
424 14-09-2010 12:47:02 18.8 C 9.18 g/m*3 18.8 C 0 km/h
425 14-09-2010 12:59:02 18.9 C 9.23 g/m*3 18.9 C 0 km/h
Sensor: Nr:Datum:Temp:Abs-Feuchte:Windchill:Wind:
Aussen-T/F 426 14-09-2010 13:11:01 19.6 C 9.28 g/m*3 19.6 C 0 km/h
427 14-09-2010 13:23:01 19.7 C 9.34 g/m*3 19.7 C 0 km/h
428 14-09-2010 13:35:01 20.2 C 9.44 g/m*3 20.2 C 0 km/h
429 14-09-2010 13:47:02 20.4 C 9.02 g/m*3 20.4 C 0 km/h
430 14-09-2010 13:59:02 20 C 8.99 g/m*3 20 C 0 km/h
431 14-09-2010 14:11:02 19.7 C 8.83 g/m*3 19.7 C 0 km/h
432 14-09-2010 14:23:02 19.7 C 9 g/m*3 19.7 C 0 km/h
433 14-09-2010 14:35:02 19.8 C 8.71 g/m*3 19.8 C 0 km/h
434 14-09-2010 14:47:01 19.6 C 8.78 g/m*3 19.6 C 0 km/h
435 14-09-2010 14:59:01 19.5 C 8.89 g/m*3 19.5 C 0 km/h
436 14-09-2010 15:11:02 20 C 8.81 g/m*3 20 C 0 km/h
437 14-09-2010 15:23:01 20 C 8.64 g/m*3 20 C 0 km/h
438 14-09-2010 15:35:02 20.4 C 8.67 g/m*3 20.4 C 0 km/h
439 14-09-2010 15:47:01 20.7 C 8.46 g/m*3 20.7 C 0 km/h
440 14-09-2010 15:59:01 20.9 C 8.56 g/m*3 20.9 C 0 km/h
441 14-09-2010 16:11:02 20.8 C 8.15 g/m*3 20.8 C 0 km/h
442 14-09-2010 16:23:01 20.9 C 8.2 g/m*3 20.9 C 0 km/h
443 14-09-2010 16:35:02 20.6 C 7.7 g/m*3 20.6 C 0 km/h
444 14-09-2010 16:47:01 20.6 C 7.7 g/m*3 20.6 C 0 km/h
445 14-09-2010 16:59:01 20.5 C 7.65 g/m*3 20.5 C 0 km/h
446 14-09-2010 17:11:02 20.5 C 7.47 g/m*3 20.5 C 0 km/h
447 14-09-2010 17:23:01 20.4 C 7.43 g/m*3 20.4 C 0 km/h
448 14-09-2010 17:35:01 20 C 7.26 g/m*3 20 C 0 km/h
449 14-09-2010 17:47:01 20 C 7.43 g/m*3 20 C 0 km/h
450 14-09-2010 17:59:01 19.8 C 7.69 g/m*3 19.8 C 0 km/h
Sensor: Nr:Datum:Temp:Abs-Feuchte:Windchill:Wind:
Aussen-T/F 451 14-09-2010 18:11:01 19.6 C 7.77 g/m*3 19.6 C 0 km/h
452 14-09-2010 18:23:02 19.4 C 7.84 g/m*3 19.4 C 0 km/h
453 14-09-2010 18:35:01 19.3 C 7.8 g/m*3 19.3 C 0 km/h
454 14-09-2010 18:47:02 19.3 C 7.8 g/m*3 19.3 C 0 km/h
455 14-09-2010 18:59:02 19.1 C 7.87 g/m*3 19.1 C 0 km/h
456 14-09-2010 19:11:01 19 C 7.82 g/m*3 19 C 0 km/h
457 14-09-2010 19:23:01 18.9 C 7.78 g/m*3 18.9 C 0 km/h
458 14-09-2010 19:35:01 18.7 C 7.68 g/m*3 18.7 C 0 km/h
459 14-09-2010 19:47:02 18.7 C 7.68 g/m*3 18.7 C 0 km/h
460 14-09-2010 19:59:03 18.7 C 7.68 g/m*3 18.7 C 0 km/h
461 14-09-2010 20:11:01 18.7 C 7.68 g/m*3 18.7 C 0 km/h
462 14-09-2010 20:23:02 18.6 C 7.64 g/m*3 18.6 C 0 km/h
463 14-09-2010 20:35:02 18.7 C 7.68 g/m*3 18.7 C 0 km/h
464 14-09-2010 20:47:02 18.5 C 7.75 g/m*3 18.5 C 0 km/h
465 14-09-2010 20:59:02 18.5 C 7.75 g/m*3 18.5 C 0 km/h
466 14-09-2010 21:11:03 18.5 C 7.75 g/m*3 18.5 C 0 km/h
467 14-09-2010 21:23:02 18.5 C 7.75 g/m*3 18.5 C 0 km/h
468 14-09-2010 21:35:02 18.6 C 7.96 g/m*3 18.6 C 0 km/h
469 14-09-2010 21:47:01 18.5 C 7.75 g/m*3 18.5 C 0 km/h
470 14-09-2010 21:59:01 18.6 C 7.64 g/m*3 18.6 C 0 km/h
471 14-09-2010 22:12:03 18.6 C 7.8 g/m*3 18.6 C 0 km/h
472 14-09-2010 22:24:03 18.5 C 7.75 g/m*3 18.5 C 0 km/h
473 14-09-2010 22:36:03 18.4 C 7.86 g/m*3 18.4 C 0 km/h
474 14-09-2010 22:48:03 18.5 C 7.91 g/m*3 18.5 C 0 km/h
475 14-09-2010 23:00:03 18.5 C 7.91 g/m*3 18.5 C 0 km/h
Sensor: Nr:Datum:Temp:Abs-Feuchte:Windchill:Wind:
Aussen-T/F 476 14-09-2010 23:12:03 18.4 C 7.86 g/m*3 18.4 C 0 km/h
477 14-09-2010 23:24:03 18.2 C 7.77 g/m*3 18.2 C 0 km/h
478 14-09-2010 23:36:04 18 C 7.99 g/m*3 18 C 0 km/h
479 14-09-2010 23:48:04 18 C 7.99 g/m*3 18 C 0 km/h
480 15-09-2010 00:00:04 18 C 7.99 g/m*3 18 C 0 km/h
481 15-09-2010 00:12:04 18 C 7.83 g/m*3 18 C 0 km/h
482 15-09-2010 00:24:04 18 C 7.83 g/m*3 18 C 0 km/h
483 15-09-2010 00:36:04 18 C 7.83 g/m*3 18 C 0 km/h
484 15-09-2010 00:48:04 18.1 C 7.88 g/m*3 18.1 C 0 km/h
485 15-09-2010 01:00:04 18.1 C 7.73 g/m*3 18.1 C 0 km/h
486 15-09-2010 01:12:04 18.1 C 7.73 g/m*3 18.1 C 0 km/h
487 15-09-2010 01:24:04 18.2 C 7.62 g/m*3 18.2 C 0 km/h
488 15-09-2010 01:36:04 18.3 C 7.66 g/m*3 18.3 C 0 km/h
489 15-09-2010 01:48:04 18.2 C 7.62 g/m*3 18.2 C 0 km/h
490 15-09-2010 02:00:04 18.3 C 7.66 g/m*3 18.3 C 0 km/h
491 15-09-2010 02:12:04 18.4 C 7.55 g/m*3 18.4 C 0 km/h
492 15-09-2010 02:24:04 18.4 C 7.55 g/m*3 18.4 C 0 km/h
493 15-09-2010 02:36:05 18.3 C 7.66 g/m*3 18.3 C 0 km/h
494 15-09-2010 02:48:05 18.2 C 7.77 g/m*3 18.2 C 0 km/h
495 15-09-2010 03:00:05 18.2 C 7.93 g/m*3 18.2 C 0 km/h
496 15-09-2010 03:12:05 18.1 C 8.03 g/m*3 18.1 C 0 km/h
497 15-09-2010 03:24:05 18 C 8.29 g/m*3 18 C 0 km/h
498 15-09-2010 03:36:05 18 C 8.45 g/m*3 18 C 0 km/h
499 15-09-2010 03:48:05 18 C 8.45 g/m*3 18 C 0 km/h
500 15-09-2010 04:00:05 17.9 C 8.7 g/m*3 17.9 C 0 km/h
Sensor: Nr:Datum:Temp:Abs-Feuchte:Windchill:Wind:
Aussen-T/F 501 15-09-2010 04:12:05 17.9 C 9.01 g/m*3 17.9 C 0 km/h
502 15-09-2010 04:24:05 17.7 C 9.05 g/m*3 17.7 C 0 km/h
503 15-09-2010 04:36:05 17.6 C 9.3 g/m*3 17.6 C 0 km/h
504 15-09-2010 04:48:05 17.4 C 9.48 g/m*3 17.4 C 0 km/h
505 15-09-2010 05:00:05 17.4 C 9.48 g/m*3 17.4 C 0 km/h
506 15-09-2010 05:12:05 16.9 C 10.07 g/m*3 16.9 C 0 km/h
507 15-09-2010 05:24:05 14.4 C 9.27 g/m*3 14.4 C 0 km/h
508 15-09-2010 05:36:05 13.3 C 9.7 g/m*3 13.3 C 0 km/h
509 15-09-2010 05:48:05 13 C 9.87 g/m*3 13 C 0 km/h
510 15-09-2010 06:00:05 12.9 C 10.03 g/m*3 12.9 C 0 km/h
511 15-09-2010 06:12:05 12.8 C 10.08 g/m*3 12.8 C 0 km/h
512 15-09-2010 06:24:05 12.7 C 10.02 g/m*3 12.7 C 0 km/h
513 15-09-2010 06:36:05 12.7 C 10.13 g/m*3 12.7 C 0 km/h
514 15-09-2010 06:48:05 12.8 C 10.19 g/m*3 12.8 C 0 km/h
515 15-09-2010 07:00:06 12.8 C 10.3 g/m*3 12.8 C 0 km/h
516 15-09-2010 07:12:06 12.7 C 10.24 g/m*3 12.7 C 0 km/h
517 15-09-2010 07:24:06 12.7 C 10.24 g/m*3 12.7 C 0 km/h
518 15-09-2010 07:36:03 12.8 C 10.3 g/m*3 12.8 C 0 km/h
519 15-09-2010 07:48:02 12.7 C 10.35 g/m*3 12.7 C 0 km/h
520 15-09-2010 08:00:02 12.6 C 10.29 g/m*3 12.6 C 0 km/h
521 15-09-2010 08:12:02 12.7 C 10.35 g/m*3 12.7 C 0 km/h
522 15-09-2010 08:24:02 12.7 C 10.35 g/m*3 12.7 C 0 km/h
523 15-09-2010 08:36:01 12.8 C 10.42 g/m*3 12.8 C 0 km/h
524 15-09-2010 08:48:02 12.7 C 10.35 g/m*3 12.7 C 0 km/h
525 15-09-2010 09:00:02 12.5 C 10.22 g/m*3 12.5 C 0 km/h
Sensor: Nr:Datum:Temp:Abs-Feuchte:Windchill:Wind:
Aussen-T/F 526 15-09-2010 09:12:01 12.7 C 10.35 g/m*3 12.7 C 0 km/h
527 15-09-2010 09:24:01 12.7 C 10.24 g/m*3 12.7 C 0 km/h
528 15-09-2010 09:36:02 13.1 C 10.38 g/m*3 13.1 C 0 km/h
529 15-09-2010 09:48:02 13.6 C 10.59 g/m*3 13.6 C 0 km/h
530 15-09-2010 10:00:02 14 C 10.49 g/m*3 14 C 0 km/h
531 15-09-2010 10:12:02 14 C 10.01 g/m*3 14 C 0 km/h
532 15-09-2010 10:24:02 14.1 C 9.95 g/m*3 14.1 C 0 km/h
533 15-09-2010 10:36:02 14.1 C 9.71 g/m*3 14.1 C 0 km/h
534 15-09-2010 10:48:02 14.1 C 9.59 g/m*3 14.1 C 0 km/h
535 15-09-2010 11:00:02 14.2 C 9.52 g/m*3 14.2 C 0 km/h
536 15-09-2010 11:12:02 14.6 C 9.01 g/m*3 14.6 C 0 km/h
537 15-09-2010 11:24:02 15 C 8.72 g/m*3 15 C 0 km/h
538 15-09-2010 11:36:02 15.6 C 8.51 g/m*3 15.6 C 0 km/h
539 15-09-2010 11:48:01 15.7 C 8.43 g/m*3 15.7 C 0 km/h
540 15-09-2010 12:00:01 16.2 C 7.31 g/m*3 16.2 C 0 km/h
541 15-09-2010 12:12:01 16.4 C 7.4 g/m*3 16.4 C 0 km/h
542 15-09-2010 12:24:01 17.2 C 7.18 g/m*3 17.2 C 0 km/h
543 15-09-2010 12:36:01 16.6 C 7.06 g/m*3 16.6 C 0 km/h
544 15-09-2010 12:48:02 16.1 C 6.17 g/m*3 16.1 C 0 km/h
545 15-09-2010 13:00:02 16.1 C 6.44 g/m*3 16.1 C 0 km/h
546 15-09-2010 13:12:02 16.4 C 6.7 g/m*3 16.4 C 0 km/h
547 15-09-2010 13:24:02 17.4 C 6.52 g/m*3 17.4 C 0 km/h
548 15-09-2010 13:36:02 17.9 C 5.95 g/m*3 17.9 C 0 km/h
549 15-09-2010 13:48:02 18.4 C 5.82 g/m*3 18.4 C 0 km/h
550 15-09-2010 14:00:02 18.5 C 5.7 g/m*3 18.5 C 0 km/h
Sensor: Nr:Datum:Temp:Abs-Feuchte:Windchill:Wind:
Aussen-T/F 551 15-09-2010 14:12:02 18.1 C 5.87 g/m*3 18.1 C 0 km/h
552 15-09-2010 14:24:02 18.5 C 5.54 g/m*3 18.5 C 0 km/h
553 15-09-2010 14:36:02 18.3 C 5.47 g/m*3 18.3 C 0 km/h
554 15-09-2010 14:48:02 18.5 C 5.7 g/m*3 18.5 C 0 km/h
555 15-09-2010 15:00:03 19.5 C 5.87 g/m*3 19.5 C 0 km/h
556 15-09-2010 15:12:01 19.6 C 5.4 g/m*3 19.6 C 0 km/h
557 15-09-2010 15:24:01 19.3 C 5.64 g/m*3 19.3 C 0 km/h
558 15-09-2010 15:36:02 19.2 C 5.94 g/m*3 19.2 C 0 km/h
559 15-09-2010 15:48:02 20 C 5.88 g/m*3 20 C 0 km/h
560 15-09-2010 16:00:02 19.6 C 5.91 g/m*3 19.6 C 0 km/h
561 15-09-2010 16:12:02 19.6 C 5.91 g/m*3 19.6 C 0 km/h
562 15-09-2010 16:24:02 19.3 C 5.97 g/m*3 19.3 C 0 km/h
563 15-09-2010 16:36:02 19.6 C 6.08 g/m*3 19.6 C 0 km/h
564 15-09-2010 16:48:02 19.5 C 6.04 g/m*3 19.5 C 0 km/h
565 15-09-2010 17:00:02 20.4 C 5.84 g/m*3 20.4 C 0 km/h
566 15-09-2010 17:12:02 19 C 5.7 g/m*3 19 C 0 km/h
567 15-09-2010 17:24:02 19.4 C 6.01 g/m*3 19.4 C 0 km/h
568 15-09-2010 17:36:02 19.9 C 5.84 g/m*3 19.9 C 0 km/h
569 15-09-2010 17:48:02 19.7 C 5.6 g/m*3 19.7 C 0 km/h
570 15-09-2010 18:00:02 18.7 C 5.44 g/m*3 18.7 C 0 km/h
571 15-09-2010 18:12:02 18.2 C 5.28 g/m*3 18.2 C 0 km/h
572 15-09-2010 18:24:03 17.5 C 5.22 g/m*3 17.5 C 0 km/h
573 15-09-2010 18:36:02 17.7 C 5.28 g/m*3 17.7 C 0 km/h
574 15-09-2010 18:48:02 17.1 C 5.39 g/m*3 17.1 C 0 km/h
575 15-09-2010 19:00:02 16.9 C 5.61 g/m*3 16.9 C 0 km/h
Sensor: Nr:Datum:Temp:Abs-Feuchte:Windchill:Wind:
Aussen-T/F 576 15-09-2010 19:12:02 16.7 C 5.4 g/m*3 16.7 C 0 km/h
577 15-09-2010 19:24:02 16.6 C 5.65 g/m*3 16.6 C 0 km/h
578 15-09-2010 19:36:02 16.4 C 5.72 g/m*3 16.4 C 0 km/h
579 15-09-2010 19:48:02 16.4 C 5.86 g/m*3 16.4 C 0 km/h
580 15-09-2010 20:00:02 16.2 C 6.07 g/m*3 16.2 C 0 km/h
581 15-09-2010 20:12:02 16 C 6.27 g/m*3 16 C 0 km/h
582 15-09-2010 20:24:02 15.8 C 6.46 g/m*3 15.8 C 0 km/h
583 15-09-2010 20:36:01 15.7 C 6.15 g/m*3 15.7 C 0 km/h
584 15-09-2010 20:48:02 15.5 C 6.34 g/m*3 15.5 C 0 km/h
585 15-09-2010 21:00:03 15.4 C 6.31 g/m*3 15.4 C 0 km/h
586 15-09-2010 21:12:01 15.2 C 6.49 g/m*3 15.2 C 0 km/h
587 15-09-2010 21:24:01 15 C 6.41 g/m*3 15 C 0 km/h
588 15-09-2010 21:37:02 15.1 C 6.32 g/m*3 15.1 C 0 km/h
589 15-09-2010 21:49:02 15.2 C 6.36 g/m*3 15.2 C 0 km/h
590 15-09-2010 22:01:02 15.1 C 6.32 g/m*3 15.1 C 0 km/h
591 15-09-2010 22:13:02 15.1 C 6.06 g/m*3 15.1 C 0 km/h
592 15-09-2010 22:25:02 14.9 C 5.86 g/m*3 14.9 C 0 km/h
593 15-09-2010 22:37:02 14.8 C 5.83 g/m*3 14.8 C 0 km/h
594 15-09-2010 22:49:02 14.9 C 5.74 g/m*3 14.9 C 0 km/h
595 15-09-2010 23:01:02 15 C 5.51 g/m*3 15 C 0 km/h
596 15-09-2010 23:13:02 15 C 5.51 g/m*3 15 C 0 km/h
597 15-09-2010 23:25:02 14.9 C 5.74 g/m*3 14.9 C 0 km/h
598 15-09-2010 23:37:02 14.8 C 5.7 g/m*3 14.8 C 0 km/h
599 15-09-2010 23:49:02 14.6 C 5.76 g/m*3 14.6 C 0 km/h

Legende:
   Min
   Max


Maximal/Minimal-Werte vom 23.02.2003 - 30.09.2020

Sensor Min Max Avg
Temp
(Aussen-T/F)
-16.4 °C
20-12-2009  01:30:01
40.4 °C
25-07-2019  16:20:00
11.32 °C

Die Daten stammen von einer Davis Vantage Pro 2 Wetter-Station und werden unter Linux mit der Software wview2wettercgi und aufbereitet. Alle Angaben erfolgen ohne Gewähr für ihre Vollständigkeit oder Richtigkeit.
Kontakt: Rainer Krienke krienke@uni-koblenz.de . Meine Webseiten an der Uni Koblenz oder privat.
Version: $Revision: 0.78 $